Location: Six Mile Lake
(44.9000°N, 79.7170°W)
Time: 04:53:49
(UTC-05:00)

deb Delta 132 - Visible Passes

Search period start: 26 November 2022 00:00
Search period end: 06 December 2022 00:00
Orbit: 527 x 1562 km, 29.1° (Epoch: 25 November)

Date Brightness Start Highest point End Pass type
(mag) Time Alt. Az. Time Alt. Az. Time Alt. Az.
26 Nov ? 05:53:08 10° SSW 05:55:47 14° S 05:58:45 10° SSE visible
27 Nov ? 04:50:20 12° S 04:50:32 12° S 04:52:21 10° SSE visible
27 Nov ? 06:40:09 10° SSW 06:42:10 12° S 06:44:22 10° SSE visible
28 Nov ? 05:35:15 10° SSW 05:36:52 12° S 05:38:33 10° SSE visible
